When you browse on this site, cookies collect data to enhance your experience and personalize the content and advertising you see.
Visit our Privacy Policy to learn more. By continuing to use the site, you agree to this use of cookies and data.
  • In United Kingdom
  • List of Countries
  • For 7 days
  • Water Temperature
  • Weather Map
  • Weather Widgets
  • user-avatar
    Login

    Hourly Weather Blagoevgrad

    Today, 20 February, Thursday

    Time Temperature Precipitation Wind Pressure Humidity
    00:00 +7°C° 0.1 mm 0 mps 719 mmHg 87%
    01:00 +7°C° 0.1 mm 0 mps 719 mmHg 89%
    02:00 +8°C° 0 mm 1 mps 718 mmHg 88%
    03:00 +7°C° 0.3 mm 1 mps 718 mmHg 89%
    04:00 +7°C° 0.3 mm 1 mps 718 mmHg 90%
    05:00 +7°C° 0.3 mm 1 mps 718 mmHg 91%
    06:00 +7°C° 0.2 mm 1 mps 718 mmHg 91%
    07:00 +7°C° 0.2 mm 1 mps 718 mmHg 92%
    08:00 +6°C° 0.2 mm 2 mps 718 mmHg 92%
    09:00 +6°C° 0.2 mm 2 mps 719 mmHg 90%
    10:00 +6°C° 0.2 mm 2 mps 719 mmHg 89%
    11:00 +5°C° 0.2 mm 3 mps 719 mmHg 88%
    12:00 +5°C° 0.3 mm 3 mps 719 mmHg 87%
    13:00 +5°C° 0.3 mm 3 mps 719 mmHg 87%
    14:00 +6°C° 0.3 mm 4 mps 719 mmHg 87%
    15:00 +5°C° 0.3 mm 4 mps 719 mmHg 87%
    16:00 +5°C° 0.3 mm 4 mps 720 mmHg 86%
    17:00 +4°C° 0.3 mm 4 mps 720 mmHg 86%
    18:00 +4°C° 0.2 mm 4 mps 720 mmHg 87%
    19:00 +3°C° 0.2 mm 4 mps 721 mmHg 89%
    20:00 +3°C° 0.2 mm 3 mps 721 mmHg 90%
    21:00 +3°C° 0.2 mm 3 mps 721 mmHg 88%
    22:00 +2°C° 0.2 mm 3 mps 722 mmHg 87%
    23:00 +3°C° 0.2 mm 2 mps 722 mmHg 85%

    Tomorrow, 21 February, Friday

    Time Temperature Precipitation Wind Pressure Humidity
    00:00 +3°C° 0.1 mm 2 mps 722 mmHg 86%
    01:00 +3°C° 0.1 mm 2 mps 722 mmHg 87%
    02:00 +2°C° 0.1 mm 2 mps 723 mmHg 88%
    03:00 +2°C° 0.1 mm 2 mps 723 mmHg 88%
    04:00 +2°C° 0.1 mm 2 mps 723 mmHg 88%
    05:00 +1°C° 0.1 mm 2 mps 723 mmHg 88%
    06:00 +1°C° 0 mm 2 mps 723 mmHg 87%
    07:00 +1°C° 0 mm 2 mps 723 mmHg 86%
    08:00 +2°C° 0 mm 1 mps 724 mmHg 84%
    15:00 +7°C° 0 mm 2 mps 724 mmHg 67%
    16:00 +7°C° 0 mm 2 mps 724 mmHg 68%
    17:00 +7°C° 0 mm 3 mps 723 mmHg 69%
    18:00 +5°C° 0 mm 2 mps 724 mmHg 73%
    19:00 +4°C° 0 mm 2 mps 724 mmHg 77%
    20:00 +4°C° 0 mm 1 mps 725 mmHg 81%
    21:00 +3°C° 0 mm 1 mps 725 mmHg 79%
    22:00 +3°C° 0 mm 1 mps 725 mmHg 78%
    23:00 +2°C° 0 mm 2 mps 725 mmHg 76%

    Day after tomorrow, 22 February, Saturday

    Time Temperature Precipitation Wind Pressure Humidity
    00:00 +2°C° 0 mm 2 mps 725 mmHg 77%
    01:00 +2°C° 0 mm 2 mps 725 mmHg 78%
    02:00 +2°C° 0 mm 2 mps 726 mmHg 78%
    03:00 +1°C° 0 mm 2 mps 725 mmHg 79%
    04:00 +1°C° 0 mm 2 mps 725 mmHg 80%
    05:00 -1°C° 0 mm 2 mps 725 mmHg 81%
    06:00 +1°C° 0.2 mm 2 mps 726 mmHg 80%
    07:00 +1°C° 0.2 mm 2 mps 726 mmHg 79%
    08:00 0°C° 0.2 mm 3 mps 726 mmHg 78%
    09:00 +1°C° 0 mm 3 mps 727 mmHg 72%
    10:00 +1°C° 0 mm 4 mps 727 mmHg 66%
    11:00 +2°C° 0 mm 5 mps 728 mmHg 60%
    12:00 +3°C° 0 mm 5 mps 728 mmHg 60%
    13:00 +5°C° 0 mm 5 mps 728 mmHg 59%
    14:00 +5°C° 0 mm 5 mps 728 mmHg 59%
    15:00 +5°C° 0 mm 4 mps 728 mmHg 60%
    16:00 +5°C° 0 mm 4 mps 728 mmHg 62%
    17:00 +4°C° 0 mm 4 mps 728 mmHg 63%
    18:00 +3°C° 0 mm 3 mps 728 mmHg 67%
    19:00 +3°C° 0 mm 2 mps 728 mmHg 71%
    20:00 +1°C° 0 mm 2 mps 729 mmHg 74%
    21:00 +2°C° 0 mm 1 mps 729 mmHg 73%
    22:00 +2°C° 0 mm 1 mps 729 mmHg 72%
    23:00 +2°C° 0 mm 1 mps 729 mmHg 71%

    23 February, Sunday

    Time Temperature Precipitation Wind Pressure Humidity
    00:00 +2°C° 0 mm 1 mps 729 mmHg 70%
    01:00 +2°C° 0 mm 1 mps 729 mmHg 70%
    02:00 0°C° 0 mm 0 mps 729 mmHg 70%
    03:00 +2°C° 0 mm 1 mps 729 mmHg 69%
    04:00 +2°C° 0 mm 1 mps 728 mmHg 68%
    05:00 +2°C° 0 mm 1 mps 728 mmHg 68%
    06:00 +2°C° 0 mm 1 mps 728 mmHg 66%
    07:00 +2°C° 0 mm 0 mps 728 mmHg 65%
    08:00 +2°C° 0 mm 0 mps 728 mmHg 63%
    09:00 +5°C° 0 mm 1 mps 727 mmHg 58%
    10:00 +7°C° 0 mm 1 mps 727 mmHg 52%
    11:00 +9°C° 0 mm 1 mps 727 mmHg 47%
    12:00 +10°C° 0 mm 1 mps 726 mmHg 46%
    13:00 +12°C° 0 mm 1 mps 726 mmHg 45%
    14:00 +13°C° 0 mm 1 mps 725 mmHg 44%
    15:00 +13°C° 0 mm 1 mps 725 mmHg 48%
    16:00 +12°C° 0 mm 1 mps 724 mmHg 53%
    17:00 +11°C° 0 mm 0 mps 724 mmHg 57%
    18:00 +11°C° 0 mm 1 mps 724 mmHg 56%
    19:00 +10°C° 0 mm 1 mps 724 mmHg 55%
    20:00 +9°C° 0 mm 1 mps 724 mmHg 54%
    21:00 +9°C° 0 mm 1 mps 723 mmHg 53%
    22:00 +9°C° 0 mm 1 mps 723 mmHg 52%
    23:00 +9°C° 0 mm 1 mps 723 mmHg 51%

    24 February, Monday

    Time Temperature Precipitation Wind Pressure Humidity
    00:00 +8°C° 0 mm 1 mps 722 mmHg 50%
    01:00 +8°C° 0 mm 1 mps 722 mmHg 50%
    02:00 +8°C° 0 mm 1 mps 722 mmHg 50%
    03:00 +8°C° 0 mm 1 mps 721 mmHg 50%
    04:00 +8°C° 0 mm 1 mps 721 mmHg 50%
    05:00 +8°C° 0 mm 1 mps 720 mmHg 51%
    06:00 +8°C° 0 mm 1 mps 720 mmHg 51%
    07:00 +8°C° 0 mm 1 mps 720 mmHg 52%
    08:00 +8°C° 0 mm 1 mps 720 mmHg 53%
    09:00 +10°C° 0 mm 1 mps 721 mmHg 52%
    10:00 +10°C° 0 mm 2 mps 721 mmHg 51%
    11:00 +13°C° 0 mm 2 mps 722 mmHg 50%
    12:00 +11°C° 0 mm 3 mps 722 mmHg 55%
    13:00 +11°C° 0 mm 3 mps 722 mmHg 61%
    14:00 +11°C° 0 mm 4 mps 722 mmHg 67%
    15:00 +10°C° 0 mm 4 mps 722 mmHg 68%
    16:00 +10°C° 0 mm 4 mps 722 mmHg 69%
    17:00 +9°C° 0 mm 3 mps 723 mmHg 70%
    18:00 +8°C° 0 mm 3 mps 723 mmHg 74%
    19:00 +7°C° 0 mm 3 mps 724 mmHg 78%
    20:00 +5°C° 0 mm 2 mps 724 mmHg 83%
    21:00 +5°C° 0 mm 2 mps 725 mmHg 81%
    22:00 +5°C° 0 mm 1 mps 725 mmHg 80%
    23:00 +5°C° 0 mm 1 mps 726 mmHg 79%

    25 February, Tuesday

    Time Temperature Precipitation Wind Pressure Humidity
    00:00 +4°C° 0 mm 1 mps 726 mmHg 76%
    01:00 +4°C° 0 mm 1 mps 726 mmHg 74%
    02:00 +4°C° 0 mm 1 mps 726 mmHg 72%
    03:00 +4°C° 0 mm 1 mps 726 mmHg 69%
    04:00 +4°C° 0 mm 1 mps 725 mmHg 67%
    05:00 +4°C° 0 mm 1 mps 725 mmHg 65%
    06:00 +3°C° 0 mm 0 mps 725 mmHg 60%
    07:00 +4°C° 0 mm 0 mps 725 mmHg 56%
    08:00 +4°C° 0 mm 0 mps 725 mmHg 52%
    09:00 +7°C° 0 mm 1 mps 725 mmHg 48%
    10:00 +9°C° 0 mm 1 mps 725 mmHg 44%
    11:00 +11°C° 0 mm 1 mps 725 mmHg 39%
    12:00 +12°C° 0 mm 2 mps 725 mmHg 41%
    13:00 +13°C° 0 mm 2 mps 724 mmHg 43%
    14:00 +14°C° 0 mm 2 mps 724 mmHg 45%
    15:00 +14°C° 0 mm 2 mps 723 mmHg 49%
    16:00 +14°C° 0 mm 2 mps 722 mmHg 54%
    17:00 +13°C° 0 mm 2 mps 722 mmHg 59%
    18:00 +12°C° 0 mm 2 mps 722 mmHg 63%
    19:00 +9°C° 0 mm 2 mps 722 mmHg 67%
    20:00 +8°C° 0 mm 2 mps 722 mmHg 71%
    21:00 +8°C° 0 mm 2 mps 722 mmHg 72%
    22:00 +8°C° 0 mm 2 mps 722 mmHg 74%
    23:00 +7°C° 0 mm 2 mps 722 mmHg 75%
    Show more